Showing default

COSMOS 2523, 42986

Orbit data source: Space-Track

COSMOS 2523, 42986 is a payload satellite owned by VVKO VKS (CIS) in SSO that was launched on Fri, 23 Jun 2017 UTC via a SOYUZ-2-1V launch vehicle from the Plesetsk Missile And Space Complex (PKMTR). Payload-class satellites include a variety of spacecraft equipped with specific instruments for various scientific and technological missions. These include communications satellites like Starlink; space stations such as the ISS; scientific satellites like the Hubble; Earth observation satellites from companies like Planet Labs, Umbra, and HawkEye 360; GPS; miniature CubeSats for education and research; and military/defense satellites.

Loading next visibility...
Identifier
42986, 2017-037E
Orbit
SSO
Country
Flag of CISCIS
Related business
Manufacturer
TSKHM?
Mission
Operational Defense Technology
Bus & Motor
NAPRAZHENIYE?, Unknown motor
Mass
~47 kg wet, ~47 kg dry
Launch date (UTC)
2017-06-23 (8 years ago)
Launch vehicle
SOYUZ-2-1V
Launch site
Plesetsk Missile And Space Complex (PKMTR)
Object type
Payload
Rocket body
Debris
Shape & HBR
Box, 0.2 m
Radar Cross Section
0.100 m², Medium (>0.1 m² and < 1m²)

Expand to show TLE details & history
Last TLE update: 7 hours ago

TLE from 7 hours ago
0 COSMOS 2523
1 42986U 17037E   25287.94988304  .00003008  00000-0  27337-3 0  9992
2 42986  97.5154 306.5597 0067614 334.0424  25.7411 14.94245900432323
Epoch: 2025-10-14T22:47Z
TLE epoch observation values (Epoch: 2025-10-14T22:47:49.894Z)
Latitude
0.00003°
Longitude
-59.12916°
Altitude
545.411 km
Speed
7.612 km/s
True Right ascension
20h 26m 14s
True Declination
0° 00' 00"
Sunlit
Object was in daylight at epoch
Visualization orbit readout
Latitude
Unknown
Longitude
Unknown
Altitude
Unknown
Speed
Unknown
Apparent Right ascension
Unknown
Apparent Declination
Unknown
Sunlit
N/A
Visualization observer readout
Local Sidereal Time
00:13:05
Azimuth
Unknown
Elevation
Unknown
Doppler factor
Unknown
Orbital elements
Apogee altitude
628.777 km
Perigee altitude
534.661 km
Semi-major axis
6,959.856 km
Eccentricity
0.00676
Inclination
97.5154°
RAAN
306.5597°
Arg. of periapsis
334.0424°
True anomaly
26.08018°
Mean anomaly
25.7411°
Eccentric anomaly
25.91038°
Mean motion
3.73803 °/min
Orbital period
96.31 mins
BSTAR
0.00027337
Loading maneuver chart data...
Computing Atmospheric mass density...
Loading historical data...
Loading historical data...
Loading historical data...
Loading historical data...
Loading historical data...
Loading historical data...
Loading historical data...

Documentation

Showing up to 5 results
|